Regional Weather Roundup
Issued by NWS New Orleans/Baton Rouge, LA

Home | Current Version | Previous Version | Text Only | Print | Product List | Glossary Off
Versions: 1 2 3 4 5 6 7 8 9 10 11 12 13 14 15 16 17 18 19 20 21 22 23 24 25 26 27 28 29 30 31 32 33 34 35 36 37 38 39 40 41 42 43 44 45 46 47 48 49 50

613
ASUS44 KLIX 190205
RWRLIX
NEW ORLEANS REGIONAL WEATHER ROUNDUP
NATIONAL WEATHER SERVICE NEW ORLEANS LA
900 PM CDT FRI APR 18 2014

NOTE: "FAIR" INDICATES FEW OR NO CLOUDS BELOW 12,000 FEET WITH NO
      SIGNIFICANT WEATHER AND/OR OBSTRUCTIONS TO VISIBILITY.
      SKY/WX - SKY CONDITION AND SIGNIFICANT WEATHER.
      TMP - AIR TEMPERATURE.     DP    - DEWPOINT TEMPERATURE.
      RH  - RELATIVE HUMIDITY.   PRES  - PRESSURE.
      HI  - HEAT INDEX.          WCI   - WIND CHILL INDEX.

*  THESE STATIONS ARE NOT NWS OR FAA STATIONS AND ARE NOT UNDER
   NWS QUALITY CONTROL.

LAZ038-040-048-061>063-065>067-069-190300-
SOUTHEAST LOUISIANA

CITY           SKY/WX    TMP DP  RH WIND       PRES   REMARKS
N.O. AUDUBON   NOT AVBL
N.O. INTL ARPT PTCLDY    64  56  75 NE12      30.10R
N.O. LAKEFRONT CLEAR     64  57  78 NE17      30.10R
N.O. DOWNTOWN*   N/A     64  52  63 N7        30.10R
SLIDELL        CLEAR     60  54  80 NE3       30.10R
BATON ROUGE    CLEAR     63  59  87 CALM      30.10R
BOOTHVILLE     MOCLDY    62  57  83 N9        30.08R
BELLE CHASSE   PTCLDY    62  54  74 NE9       30.08R
BOGALUSA*        N/A     61  54  78 CALM      30.13R
GALLIANO*      CLEAR     65  58  78 N9        30.09R
NEW ROADS*       N/A     62  61  96 MISG      30.10S
GONZALES*        N/A     63  59  86 CALM      30.09R
HAMMOND*       CLEAR     64  54  68 NE3       30.13R
HOUMA*           N/A     65  56  72 NE5       30.09R
PORT FOURCHON* CLEAR     66  59  77 NE13      30.10R

$$

MSZ070-080>082-190300-
SOUTHERN MISSISSIPPI

CITY           SKY/WX    TMP DP  RH WIND       PRES   REMARKS
MCCOMB         CLEAR     63  54  72 CALM      30.11R
GULFPORT       PTCLDY    64  53  67 N10       30.09R
BILOXI         MOCLDY    62  55  77 NE15G21   30.09R
PASCAGOULA     CLOUDY    60  54  80 N13G23    30.09R

$$

COASTAL OBSERVATIONS
LAKE AND NEARSHORE STATIONS

STATION/POSITION TIME  TEMP    WIND        PRES    WAVE
                       AIR SEA DIR/SP/G            HT/PER
                 (UTC) (F)     (DEG/KT/KT) (MB)    (FT/S)
PASCAGOULA       0200   61     360/  9/ 18 1018.1
WAVELAND YACHT   0200   62 68   20/ 17/ 20 1018.2
GRAND ISLE       0200   64 69   60/ 18/ 23 1018.6
SOUTHWEST PASS   0200   63 58   20/ 18/ 20 1018.7
NEW CANAL        0200   64 65   60/ 15/ 17 1019.3
SHELL BEACH      0200   63 63   10/ 15/ 18 1018.8

OFFSHORE STATIONS

STATION/POSITION TIME  TEMP    WIND        PRES    WAVE
                       AIR SEA DIR/SP/G            HT/PER
                 (UTC) (F)     (DEG/KT/KT) (MB)    (FT/S)
64 S DAUPHIN ISL 0149   63 71  360/ 27/ 31 1017.2

$$




USA.gov is the U.S. government's official web portal to all federal, state and local government web resources and services.